Location: Unspecified
(17.6330°N, 0.0000°E)
Time: 12:51:44
(UTC+00:00)

A-11 Canister half - Pass Details

Date: 20 June 2019
Orbit: 1514 x 1685 km, 47.2° (Epoch: 20 July)

Event Time Altitude Azimuth Distance (km) Brightness Sun altitude
Rises 20:40:08 0° 292° (WNW) 4,661 12.7 -25.9°
Reaches altitude 10° 20:44:15 10° 276° (W) 3,669 11.7 -26.7°
Maximum altitude 20:50:22 20° 234° (SW) 2,963 10.6 -27.8°
Enters shadow 20:55:32 12° 196° (SSW) 3,482 10.6 -28.8°
Drops below altitude 10° 20:56:33 10° 191° (S) 3,680 - -28.9°
Sets 21:00:44 0° 175° (S) 4,679 - -29.7°
